Location: Mountain Grove
(34.0887°N, 86.6172°W)
Time: 21:59:04
(UTC+00:00)

USA 238 DEB - Pass Details

Date: 14 July 2020
Orbit: 1012 x 1200 km, 63.4° (Epoch: 05 August)

Event Time Altitude Azimuth Distance (km) Brightness Sun altitude
Exits shadow 08:20:46 30° 163° (SSE) 1,720 4.5 -24.1°
Maximum altitude 08:23:24 45° 113° (ESE) 1,374 4.3 -23.8°
Drops below altitude 10° 08:29:43 10° 44° (NE) 2,869 7.1 -22.9°
Sets 08:32:31 0° 38° (NE) 3,852 8.1 -22.6°
